Weather History for Jerez de la Frontera, Spain

Change the Weather History Date:

Tuesday, March 12, 2013

  Actual Average Record
Temperature  
Mean Temperature 58 °F -  
Max Temperature 64 °F 68 °F 77 °F (2003)
Min Temperature 53 °F 47 °F 41 °F (2007)
Degree Days  
Heating Degree Days 6    
Growing Degree Days 8 (Base 50)    
Moisture  
Dew Point 56 °F    
Average Humidity 97    
Maximum Humidity 100    
Minimum Humidity 88    
Precipitation  
Precipitation 0.20 in 0.07 in - ()
Sea Level Pressure  
Sea Level Pressure 29.74 in    
Wind  
Wind Speed 11 mph ()    
Max Wind Speed 26 mph    
Max Gust Speed 37 mph    
Visibility 4.3 miles    
Events Rain    
Averages and records for this station are not official NWS values.
T = Trace of Precipitation, MM = Missing Value Source: Averaged Metar Reports

Daily Weather History Graph

Daily Weather History Graph

Search for Another Location

Airport:

Trip Planner

Search our weather history database for the weather conditions in past years. The results will help you decide how hot, cold, wet, or windy it might be!

Date:

Astronomy

Mar. 12, 2013 Rise Set
Actual Time 7:39 AM CET 7:28 PM CET
Civil Twilight 7:13 AM CET 7:54 PM CET
Nautical Twilight 6:43 AM CET 8:24 PM CET
Astronomical Twilight 6:13 AM CET 8:55 PM CET
Moon 7:40 AM CET (3/12) 8:26 PM CET (3/12)
Length of Visible Light 12h 41m
Length of Day
11h 49m
New Moon, 0% of the Moon is Illuminated
Mar 12
New Moon
Mar 19
First Quarter
Mar 27
Full
Apr 3
Last Quarter
Apr 10
New

Hourly Weather History & Observations

Time (CET) Temp. Dew Point Humidity Pressure Visibility Wind Dir Wind Speed Gust Speed Precip Events Conditions
1:00 AM 55 °F 54 °F 97% 29.95 in 5 mi SW 11.5 mph - - Rain Rain
5:00 AM 53.6 °F 53.6 °F 100% 29.86 in 6.2 mi SSW 5.8 mph - N/A   Mostly Cloudy
5:30 AM 53.6 °F 53.6 °F 100% 29.86 in 4.3 mi South 3.5 mph - N/A Rain Rain
6:00 AM 53.6 °F 53.6 °F 100% 29.83 in 4.3 mi SSW 6.9 mph - N/A Rain Rain
6:30 AM 53.6 °F 53.6 °F 100% 29.83 in 4.3 mi SSW 9.2 mph - N/A Rain Rain
7:00 AM 55 °F 55 °F 98% 29.83 in 6 mi SSW 6.9 mph - - Rain Light Rain
7:00 AM 53.6 °F 53.6 °F 100% 29.83 in 6.2 mi SSW 6.9 mph - N/A Rain Light Rain
7:30 AM 53.6 °F 53.6 °F 100% 29.80 in 6.2 mi South 5.8 mph - N/A Rain Light Rain
8:00 AM 53.6 °F 53.6 °F 100% 29.80 in 6.2 mi SSW 8.1 mph - N/A   Mostly Cloudy
8:30 AM 53.6 °F 53.6 °F 100% 29.80 in 6.2 mi SSW 8.1 mph - N/A   Light Drizzle
9:00 AM 55.4 °F 55.4 °F 100% 29.80 in 3.7 mi SSW 9.2 mph - N/A   Mostly Cloudy
9:30 AM 55.4 °F 55.4 °F 100% 29.80 in 1.9 mi SW 11.5 mph - N/A Rain Rain
10:00 AM 55.4 °F 55.4 °F 100% 29.77 in 2.2 mi SSW 15.0 mph - N/A   Mostly Cloudy
10:14 AM 55.4 °F 55.4 °F 100% 29.77 in 2.2 mi SSW 12.7 mph - N/A Rain Rain
10:30 AM 57.2 °F 55.4 °F 94% 29.77 in 2.8 mi SSW 15.0 mph - N/A Rain Light Rain
11:00 AM 57.2 °F 55.4 °F 94% 29.77 in 2.2 mi SSW 17.3 mph - N/A   Mostly Cloudy
11:30 AM 57.2 °F 57.2 °F 100% 29.74 in 1.9 mi SSW 21.9 mph - N/A Rain Rain
12:00 PM 57.2 °F 57.2 °F 100% 29.74 in 1.6 mi SSW 23.0 mph - N/A   Overcast
12:10 PM 57.2 °F 57.2 °F 100% 29.71 in 0.9 mi SSW 23.0 mph - N/A Rain Rain
12:30 PM 57.2 °F 57.2 °F 100% 29.71 in 0.6 mi SSW 23.0 mph - N/A Rain Rain
1:00 PM 59 °F 59 °F 100% 29.71 in 1 mi SSW 24.2 mph - - Rain Rain
1:00 PM 57.2 °F 57.2 °F 100% 29.71 in 0.9 mi SSW 24.2 mph 36.8 mph N/A Rain Light Rain
1:18 PM 59.0 °F 59.0 °F 100% 29.71 in 1.9 mi SSW 26.5 mph - N/A   Overcast
1:30 PM 59.0 °F 59.0 °F 100% 29.68 in 2.5 mi SSW 24.2 mph - N/A   Overcast
2:00 PM 59.0 °F 59.0 °F 100% 29.68 in 1.9 mi SSW 20.7 mph - N/A Rain Light Rain
2:30 PM 60.8 °F 60.8 °F 100% 29.68 in 1.9 mi SW 15.0 mph - N/A   Overcast
3:00 PM 62.6 °F 60.8 °F 94% 29.65 in 3.1 mi WSW 20.7 mph - N/A   Overcast
3:30 PM 62.6 °F 60.8 °F 94% 29.62 in 3.7 mi WSW 23.0 mph 34.5 mph N/A   Overcast
4:30 PM 62.6 °F 59.0 °F 88% 29.62 in 6.2 mi WSW 21.9 mph 35.7 mph N/A   Mostly Cloudy
5:00 PM 60.8 °F 57.2 °F 88% 29.65 in 6.2 mi West 20.7 mph - N/A   Mostly Cloudy
5:30 PM 60.8 °F 57.2 °F 88% 29.65 in 6.2 mi West 15.0 mph - N/A   Mostly Cloudy
6:00 PM 60.8 °F 57.2 °F 88% 29.65 in 6.2 mi West 13.8 mph - N/A   Mostly Cloudy
6:30 PM 60.8 °F 57.2 °F 88% 29.65 in 6.2 mi West 10.4 mph - N/A   Mostly Cloudy
7:00 PM 58 °F 56 °F 90% 29.68 in 6 mi North 11.5 mph - -   Mostly Cloudy
7:00 PM 57.2 °F 55.4 °F 94% 29.68 in 6.2 mi North 10.4 mph - N/A   Mostly Cloudy
7:30 PM 55.4 °F 53.6 °F 94% 29.68 in 6.2 mi North 6.9 mph - N/A   Mostly Cloudy
8:00 PM 53.6 °F 53.6 °F 100% 29.68 in 6.2 mi North 3.5 mph - N/A   Mostly Cloudy
8:30 PM 53.6 °F 53.6 °F 100% 29.71 in 6.2 mi Variable 2.3 mph - N/A   Scattered Clouds
9:00 PM 53.6 °F 53.6 °F 100% 29.71 in 6.2 mi Variable 1.2 mph - N/A   Scattered Clouds
9:30 PM 53.6 °F 51.8 °F 94% 29.71 in 6.2 mi SW 3.5 mph - N/A   Scattered Clouds
10:00 PM 53.6 °F 53.6 °F 100% 29.74 in 6.2 mi SW 3.5 mph - N/A   Scattered Clouds
10:30 PM 53.6 °F 51.8 °F 94% 29.74 in 6.2 mi West 4.6 mph - N/A   Scattered Clouds
11:00 PM 55.4 °F 51.8 °F 88% 29.77 in 6.2 mi West 6.9 mph - N/A   Mostly Cloudy